THY250 LTAI-LLBG

Flight info

Callsign THY250
Flight time N/A
Altitude 39000
Route KULOL UN135 VESAR/N0481F380 DCT EMEDA/N0479F390 DCT TUZIB L189 ZUKKO
Aircraft A333/H-SDE3GHIJ2J3J5M1RVWXY/LB2D1

Departure

Time 2026-05-04 10:19
Airport Antalya International Airport (LTAI)

Arrival

Time N/A
Airport Ben Gurion International Airport (LLBG)
Time Latitude Longitude Altitude Speed Heading
2026-05-04 10:17 36.88146 30.80733 194 ft 0 kts
2026-05-04 10:17 36.88159 30.80734 192 ft 12 kts
2026-05-04 10:19 36.93623 30.85804 2960 ft 259 kts 86°
2026-05-04 10:19 36.93318 30.88088 3492 ft 276 kts 102°
2026-05-04 10:19 36.92650 30.90387 4221 ft 283 kts 109°
2026-05-04 10:19 36.91829 30.92659 4941 ft 289 kts 112°
2026-05-04 10:20 36.90966 30.94937 5739 ft 291 kts 111°
2026-05-04 10:20 36.90125 30.97221 6695 ft 286 kts 110°
2026-05-04 10:20 36.89595 30.98717 7321 ft 285 kts 109°
2026-05-04 10:20 36.88566 31.01774 8459 ft 287 kts 110°
2026-05-04 10:21 36.88067 31.03314 8931 ft 291 kts 109°
2026-05-04 10:21 36.87317 31.05681 9738 ft 295 kts 108°
2026-05-04 10:21 36.86561 31.08096 10274 ft 306 kts 108°
2026-05-04 10:21 36.85762 31.10660 10548 ft 327 kts 109°
2026-05-04 10:22 36.84006 31.16266 11061 ft 367 kts 109°
2026-05-04 10:22 36.83050 31.19294 11413 ft 381 kts 110°
2026-05-04 10:22 36.82064 31.22394 12050 ft 386 kts 110°
2026-05-04 10:23 36.81067 31.25519 12756 ft 391 kts 110°
2026-05-04 10:23 36.80053 31.28701 13336 ft 398 kts 110°
2026-05-04 10:25 36.72625 31.51948 17324 ft 428 kts 110°
2026-05-04 10:25 36.71512 31.55420 17885 ft 433 kts 111°
2026-05-04 10:25 36.70389 31.58916 18366 ft 437 kts 111°
2026-05-04 10:25 36.69254 31.62445 18863 ft 440 kts 111°
2026-05-04 10:26 36.68109 31.66001 19349 ft 443 kts 111°
2026-05-04 10:26 36.66956 31.69577 19847 ft 446 kts 110°
2026-05-04 10:26 36.65795 31.73176 20303 ft 450 kts 110°
2026-05-04 10:26 36.64624 31.76801 20761 ft 453 kts 110°
2026-05-04 10:27 36.63444 31.80450 21245 ft 456 kts 110°
2026-05-04 10:27 36.62253 31.84128 21663 ft 460 kts 110°
2026-05-04 10:27 36.61054 31.87830 22094 ft 463 kts 110°
2026-05-04 10:27 36.59845 31.91552 22544 ft 466 kts 110°
2026-05-04 10:28 36.58626 31.95299 22987 ft 469 kts 110°
2026-05-04 10:28 36.57397 31.99072 23442 ft 471 kts 110°
2026-05-04 10:28 36.56163 32.02855 23835 ft 473 kts 110°
2026-05-04 10:28 36.54921 32.06662 24188 ft 476 kts 110°
2026-05-04 10:29 36.53668 32.10496 24506 ft 481 kts 111°
2026-05-04 10:29 36.52401 32.14368 24869 ft 484 kts 111°
2026-05-04 10:29 36.51128 32.18250 25266 ft 486 kts 111°
2026-05-04 10:29 36.49850 32.22145 25637 ft 487 kts 111°
2026-05-04 10:30 36.48566 32.26053 25986 ft 490 kts 111°
2026-05-04 10:30 36.47272 32.29984 26350 ft 493 kts 111°
2026-05-04 10:30 36.45972 32.33930 26733 ft 495 kts 111°
2026-05-04 10:30 36.44661 32.37905 27004 ft 500 kts 111°
2026-05-04 10:31 36.43334 32.41923 27234 ft 505 kts 111°
2026-05-04 10:31 36.41997 32.45967 27603 ft 507 kts 111°
2026-05-04 10:32 36.33809 32.70603 29508 ft 524 kts 112°
2026-05-04 10:33 36.32396 32.74780 29828 ft 526 kts 116°
2026-05-04 10:33 36.30617 32.78726 30207 ft 524 kts 125°
2026-05-04 10:33 36.28370 32.82246 30725 ft 517 kts 136°
2026-05-04 10:33 36.25749 32.85141 31202 ft 510 kts 147°
2026-05-04 10:34 36.22761 32.87459 31588 ft 505 kts 155°
2026-05-04 10:34 36.19633 32.89405 32020 ft 501 kts 159°
2026-05-04 10:34 36.16462 32.91152 32555 ft 496 kts 161°
2026-05-04 10:34 36.13293 32.92805 33016 ft 493 kts 161°
2026-05-04 10:35 36.10134 32.94433 33407 ft 492 kts 161°
2026-05-04 10:35 36.06982 32.96069 33765 ft 491 kts 161°
2026-05-04 10:35 36.03842 32.97723 34070 ft 490 kts 160°
2026-05-04 10:35 36.00709 32.99394 34314 ft 490 kts 161°
2026-05-04 10:36 35.97586 33.01075 34617 ft 489 kts 161°
2026-05-04 10:36 35.94476 33.02756 34900 ft 488 kts 161°
2026-05-04 10:36 35.91363 33.04441 35143 ft 488 kts 161°
2026-05-04 10:36 35.88254 33.06123 35376 ft 488 kts 161°
2026-05-04 10:37 35.85143 33.07804 35621 ft 488 kts 161°
2026-05-04 10:37 35.82031 33.09484 35865 ft 488 kts 161°
2026-05-04 10:37 35.78921 33.11159 36103 ft 488 kts 161°
2026-05-04 10:37 35.75813 33.12832 36337 ft 488 kts 161°
2026-05-04 10:39 35.57184 33.22829 37658 ft 486 kts 162°
2026-05-04 10:39 35.54080 33.24489 37865 ft 486 kts 162°
2026-05-04 10:39 35.50983 33.26145 38071 ft 486 kts 162°
2026-05-04 10:40 35.47874 33.27805 38174 ft 487 kts 162°
2026-05-04 10:40 35.44764 33.29463 38347 ft 488 kts 162°
2026-05-04 10:40 35.41653 33.31122 38530 ft 488 kts 162°
2026-05-04 10:40 35.38534 33.32784 38709 ft 487 kts 162°
2026-05-04 10:41 35.35429 33.34438 38856 ft 487 kts 162°
2026-05-04 10:41 35.32320 33.36091 38972 ft 488 kts 162°
2026-05-04 10:41 35.29201 33.37748 38994 ft 488 kts 162°
2026-05-04 10:42 35.22990 33.41046 38985 ft 486 kts 163°
2026-05-04 10:42 35.16789 33.44332 38991 ft 486 kts 163°
2026-05-04 10:43 35.10585 33.47613 38996 ft 486 kts 163°
2026-05-04 10:45 34.85781 33.60679 38992 ft 484 kts 163°
2026-05-04 10:45 34.79591 33.63926 38992 ft 484 kts 163°
2026-05-04 10:46 34.73405 33.67166 38963 ft 484 kts 163°
2026-05-04 10:46 34.67264 33.70377 38989 ft 482 kts 164°
2026-05-04 10:47 34.61122 33.73586 38992 ft 480 kts 164°
2026-05-04 10:47 34.54983 33.76785 39002 ft 480 kts 164°
2026-05-04 10:49 34.29771 33.81806 39037 ft 455 kts 185°
2026-05-04 10:50 34.23444 33.82260 39030 ft 455 kts 185°
2026-05-04 10:52 33.98220 33.84198 39072 ft 453 kts 185°
2026-05-04 10:52 33.91927 33.84672 39078 ft 453 kts 185°
2026-05-04 10:54 33.69950 33.86359 38265 ft 451 kts 186°
2026-05-04 10:54 33.66852 33.86602 37723 ft 450 kts 186°
2026-05-04 10:56 33.44772 33.88312 33296 ft 458 kts 187°
2026-05-04 10:56 33.41592 33.88559 32621 ft 459 kts 187°
2026-05-04 10:56 33.38403 33.88807 31946 ft 459 kts 187°
2026-05-04 10:57 33.35218 33.89054 31258 ft 460 kts 187°
2026-05-04 10:57 33.32023 33.89302 30581 ft 460 kts 187°
2026-05-04 10:57 33.28868 33.89546 29875 ft 461 kts 187°
2026-05-04 10:57 33.25671 33.89792 29100 ft 460 kts 187°
2026-05-04 10:58 33.22478 33.90040 28431 ft 458 kts 187°
2026-05-04 10:58 33.19313 33.90286 27832 ft 454 kts 187°
2026-05-04 10:58 33.16173 33.90521 27246 ft 450 kts 187°
2026-05-04 10:58 33.13050 33.90753 26625 ft 447 kts 187°
2026-05-04 10:59 33.09981 33.90981 26106 ft 442 kts 188°
2026-05-04 10:59 33.06928 33.91207 25552 ft 438 kts 188°
2026-05-04 10:59 33.03894 33.91429 25003 ft 435 kts 188°
2026-05-04 10:59 33.00880 33.91651 24456 ft 432 kts 188°
2026-05-04 11:00 32.97892 33.91870 23920 ft 429 kts 187°
2026-05-04 11:01 32.77552 33.93358 19722 ft 408 kts 185°
2026-05-04 11:02 32.74727 33.93564 19164 ft 405 kts 184°
2026-05-04 11:02 32.71924 33.93769 18599 ft 403 kts 184°
2026-05-04 11:05 32.42568 34.11955 12312 ft 355 kts 134°
2026-05-04 11:06 32.40969 34.14161 11378 ft 358 kts 136°
2026-05-04 11:06 32.39301 34.16373 10387 ft 364 kts 136°
2026-05-04 11:06 32.37588 34.18600 9346 ft 368 kts 136°
2026-05-04 11:06 32.35853 34.20835 8301 ft 369 kts 136°
2026-05-04 11:08 32.24120 34.35784 3589 ft 337 kts 137°
2026-05-04 11:10 32.14206 34.48336 3168 ft 281 kts 137°